Orbital Elements at Epoch 2459200.5 (2020-Dec-17.0) TDB
Reference: JPL 16 (heliocentric ecliptic J2000)
Element | Value | Uncertainty (1-sigma) | Units |
e | .03732009261624038 | 8.8369e-08 | |
a | 2.93960275970474 | 2.3556e-08 | au |
q | 2.829896512457603 | 2.6777e-07 | au |
i | 1.741924269182171 | 7.8708e-06 | deg |
node | 16.29851914257331 | 0.00016359 | deg |
peri | 163.3002968230619 | 0.00017285 | deg |
M | 257.8451009870681 | 5.8093e-05 | deg |
tp | 2459722.881868575922 (2022-May-23.38186858) | 0.00029983 | TDB |
period | 1840.905081444264 5.04 | 2.2128e-05 6.058e-08 | d yr |
n | .1955559814727468 | 2.3506e-09 | deg/d |
Q | 3.049309006951877 | 2.4436e-08 | au |
|
| | Orbit Determination Parameters
Additional Information
|